HS6TUX-4 Weather Reports


time (UTC)temp
C
wind
direction
speed
KPH
gust
KPH
rain 1hr
cm
rain 24hr
cm
rain mn
cm
humidity
%
barometer
mb
20260509053324 40 0 0.0 0.0 0.00 0.00 0.00 99 739.0
20260509051756 38 0 0.0 0.0 0.00 0.00 0.00 99 737.0
20260509050228 35 0 0.0 0.0 0.00 0.00 0.00 99 733.0
20260509044700 35 0 0.0 0.0 0.00 0.00 0.00 99 734.0
20260509043132 34 0 0.0 0.0 0.00 0.00 0.00 99 732.0
20260509041604 33 0 0.0 0.0 0.00 0.00 0.00 99 731.0
20260509040036 34 0 0.0 0.0 0.00 0.00 0.00 99 732.0
20260509034508 34 0 0.0 0.0 0.00 0.00 0.00 99 733.0
20260509032939 34 0 0.0 0.0 0.00 0.00 0.00 99 732.0
20260509031411 36 0 0.0 0.0 0.00 0.00 0.00 99 735.0
20260509025843 40 0 0.0 0.0 0.00 0.00 0.00 99 739.0
20260509024315 42 0 0.0 0.0 0.00 0.00 0.00 99 742.0
20260509022747 40 0 0.0 0.0 0.00 0.00 0.00 99 739.0
20260509021219 36 0 0.0 0.0 0.00 0.00 0.00 99 734.0
20260509014026 35 0 0.0 0.0 0.00 0.00 0.00 99 733.0
20260509012458 33 0 0.0 0.0 0.00 0.00 0.00 99 732.0
20260509010930 34 0 0.0 0.0 0.00 0.00 0.00 99 733.0
20260509005401 33 0 0.0 0.0 0.00 0.00 0.00 99 731.0
20260509003833 32 0 0.0 0.0 0.00 0.00 0.00 99 730.0
20260509002306 31 0 0.0 0.0 0.00 0.00 0.00 99 729.0
20260509000737 31 0 0.0 0.0 0.00 0.00 0.00 99 729.0
20260508235208 28 0 0.0 0.0 0.00 0.00 0.00 99 726.0
20260508233640 28 0 0.0 0.0 0.00 0.00 0.00 99 726.0
20260508232112 27 0 0.0 0.0 0.00 0.00 0.00 99 725.0
20260508230545 27 0 0.0 0.0 0.00 0.00 0.00 99 724.0
20260508225016 27 0 0.0 0.0 0.00 0.00 0.00 99 724.0
20260508223448 27 0 0.0 0.0 0.00 0.00 0.00 99 724.0
20260508221920 26 0 0.0 0.0 0.00 0.00 0.00 99 724.0
20260508220352 26 0 0.0 0.0 0.00 0.00 0.00 99 724.0
20260508214823 26 0 0.0 0.0 0.00 0.00 0.00 99 724.0
20260508213255 26 0 0.0 0.0 0.00 0.00 0.00 99 724.0
20260508211727 26 0 0.0 0.0 0.00 0.00 0.00 99 724.0
20260508210158 26 0 0.0 0.0 0.00 0.00 0.00 99 724.0
20260508204630 27 0 0.0 0.0 0.00 0.00 0.00 99 724.0
20260508203102 27 0 0.0 0.0 0.00 0.00 0.00 99 724.0
20260508201534 27 0 0.0 0.0 0.00 0.00 0.00 99 724.0
20260508200006 27 0 0.0 0.0 0.00 0.00 0.00 99 724.0
20260508194438 27 0 0.0 0.0 0.00 0.00 0.00 99 724.0
20260508192909 27 0 0.0 0.0 0.00 0.00 0.00 99 724.0
20260508191341 27 0 0.0 0.0 0.00 0.00 0.00 99 724.0
20260508185813 27 0 0.0 0.0 0.00 0.00 0.00 99 724.0
20260508184245 27 0 0.0 0.0 0.00 0.00 0.00 99 724.0
20260508182717 27 0 0.0 0.0 0.00 0.00 0.00 99 724.0
20260508181148 27 0 0.0 0.0 0.00 0.00 0.00 99 724.0
20260508175620 27 0 0.0 0.0 0.00 0.00 0.00 99 724.0
20260508174051 27 0 0.0 0.0 0.00 0.00 0.00 99 725.0
20260508172523 27 0 0.0 0.0 0.00 0.00 0.00 99 725.0
20260508170955 27 0 0.0 0.0 0.00 0.00 0.00 99 725.0
20260508165427 27 0 0.0 0.0 0.00 0.00 0.00 99 725.0
20260508163858 27 0 0.0 0.0 0.00 0.00 0.00 99 725.0
20260508162330 28 0 0.0 0.0 0.00 0.00 0.00 99 725.0
20260508160802 28 0 0.0 0.0 0.00 0.00 0.00 99 725.0
20260508155234 28 0 0.0 0.0 0.00 0.00 0.00 99 726.0
20260508153706 28 0 0.0 0.0 0.00 0.00 0.00 99 726.0
20260508152138 28 0 0.0 0.0 0.00 0.00 0.00 99 726.0
20260508150610 28 0 0.0 0.0 0.00 0.00 0.00 99 726.0
20260508145042 29 0 0.0 0.0 0.00 0.00 0.00 99 726.0
20260508143514 29 0 0.0 0.0 0.00 0.00 0.00 99 727.0
20260508141946 29 0 0.0 0.0 0.00 0.00 0.00 99 727.0
20260508140418 29 0 0.0 0.0 0.00 0.00 0.00 99 727.0
20260508134850 29 0 0.0 0.0 0.00 0.00 0.00 99 727.0
20260508133322 30 0 0.0 0.0 0.00 0.00 0.00 99 727.0
20260508131754 30 0 0.0 0.0 0.00 0.00 0.00 99 727.0
20260508130226 30 0 0.0 0.0 0.00 0.00 0.00 99 727.0
20260508124658 30 0 0.0 0.0 0.00 0.00 0.00 99 727.0
20260508123130 30 0 0.0 0.0 0.00 0.00 0.00 99 728.0
20260508121602 31 0 0.0 0.0 0.00 0.00 0.00 99 729.0
20260508120034 32 0 0.0 0.0 0.00 0.00 0.00 99 730.0
20260508114506 32 0 0.0 0.0 0.00 0.00 0.00 99 730.0
20260508112938 33 0 0.0 0.0 0.00 0.00 0.00 99 731.0
20260508111410 33 0 0.0 0.0 0.00 0.00 0.00 99 731.0
20260508105842 33 0 0.0 0.0 0.00 0.00 0.00 99 731.0
20260508104314 33 0 0.0 0.0 0.00 0.00 0.00 99 732.0
20260508102745 33 0 0.0 0.0 0.00 0.00 0.00 99 732.0
20260508101218 35 0 0.0 0.0 0.00 0.00 0.00 99 733.0
20260508095649 35 0 0.0 0.0 0.00 0.00 0.00 99 733.0
20260508094122 36 0 0.0 0.0 0.00 0.00 0.00 99 735.0
20260508092554 37 0 0.0 0.0 0.00 0.00 0.00 99 736.0
20260508091025 36 0 0.0 0.0 0.00 0.00 0.00 99 735.0
20260508085458 35 0 0.0 0.0 0.00 0.00 0.00 99 733.0
20260508083929 34 0 0.0 0.0 0.00 0.00 0.00 99 732.0
20260508082401 34 0 0.0 0.0 0.00 0.00 0.00 99 732.0
20260508080833 35 0 0.0 0.0 0.00 0.00 0.00 99 734.0
20260508075308 36 0 0.0 0.0 0.00 0.00 0.00 99 734.0
20260508073737 34 0 0.0 0.0 0.00 0.00 0.00 99 733.0
20260508072209 38 0 0.0 0.0 0.00 0.00 0.00 97 737.0
20260508070640 39 0 0.0 0.0 0.00 0.00 0.00 91 738.0
20260508065112 38 0 0.0 0.0 0.00 0.00 0.00 88 737.0
20260508063544 38 0 0.0 0.0 0.00 0.00 0.00 92 737.0
20260508062017 41 0 0.0 0.0 0.00 0.00 0.00 87 741.0
20260508060448 40 0 0.0 0.0 0.00 0.00 0.00 87 740.0
20260508054920 41 0 0.0 0.0 0.00 0.00 0.00 87 740.0